Погода в Григорове

Россия / Нижегородская область     55°46′52″N   44°37′47″E
темп.,
°C
ветер,
м/с
пор.,
м/с
влажн.,
%
обл.,
%
осадки,
мм/ч
давл.,
гПа
погр.,
м
17 июня, чт
чт1700:00+14ссз37892 0.0 1015114
03:00+11ссз33820 0.0 101737
06:00+14ссз37790 0.0 1018179
09:00+18сз576459 0.0 1019510
12:00+20сз68525 0.0 10201627
15:00+20ссз69625 0.0 10211526
18:00+18сз611673 0.0 1022441
21:00+14с36785 0.0 102383
18 июня, пт
пт1800:00+12с22760 0.0 102518
03:00+10с22800 0.0 102611
06:00+13ссв24775 0.0 1028147
09:00+17ссв226243 0.0 1028631
12:00+19ссв225397 0.0 10281146
15:00+20зсз115217 0.0 10271230
18:00+20ююз236919 0.0 1026224
21:00+15ююз337614 0.0 102727
19 июня, сб
сб1900:00+13юз47806 0.0 1027112
03:00+12юз49845 0.0 1027142
06:00+15зюз498589 0.0 1028217
09:00+21з56755 0.0 1027525
12:00+24з5763100 0.0 10261228
15:00+25зсз57635 0.0 10251246
18:00+23зсз49745 0.0 1024398
21:00+19з35790 0.0 102460
20 июня, вс
вс2000:00+16з36905 0.0 102584
03:00+16з36914 0.0 102579
06:00+18зсз37864 0.0 1025192
09:00+22зсз45725 0.0 1025492
12:00+25з44620 0.0 10241005
15:00+26зсз34580 0.0 10231301
18:00+25сз23732 0.0 1022426
21:00+20зюз22770 0.0 102313
21 июня, пн
пн2100:00+18юз22883 0.0 102217
03:00+16зюз22885 0.0 102311
06:00+19з258551 0.0 1023136
09:00+23з3372100 0.0 1023427
12:00+25з3466100 0.0 1022760
15:00+26з245899 0.0 10211262
18:00+25ссз237242 0.0 1021286
21:00+20з2278100 0.0 102111